This demonstration page uses our WeatherBlox Daily Observations layout. Learn more.

Left ArrowRight Arrow

34.74481, -87.66753

Hourly Observations for November 26, 2022

Temp ( °F °C ) Dew Point ( °F °C ) Humidity (%) Winds ( mph kmh ) Pressure ( in mb ) Visibility ( mi km ) Precip ( " mm )
12:53 am 00:53 Clear 52 11.1 46 7.8 80 80 NE 6 9 30.15 1021 10 16 0.00 0.00
1:53 am 01:53 Clear 50 10 45 7.2 83 83 Calm 30.16 1021 10 16 0.00 0.00
2:53 am 02:53 Clear 49 9.4 44 6.7 83 83 NE 5 7 30.14 1021 10 16 0.00 0.00
3:53 am 03:53 Clear 48 8.9 44 6.7 86 86 ENE 3 6 30.11 1020 10 16 0.00 0.00
4:53 am 04:53 Clear 47 8.3 43 6.1 86 86 Calm 30.11 1020 10 16 0.00 0.00
5:53 am 05:53 Clear 45 7.2 43 6.1 93 93 E 5 7 30.11 1020 8 13 0.00 0.00
6:53 am 06:53 Sunny 46 7.8 44 6.7 93 93 E 5 7 30.11 1020 7 11 0.00 0.00
7:53 am 07:53 Sunny 48 8.9 45 7.2 89 89 E 3 6 30.11 1020 8 13 0.00 0.00
8:53 am 08:53 Sunny 51 10.6 47 8.3 86 86 E 7 11 30.09 1019 10 16 0.00 0.00
9:53 am 09:53 Sunny 53 11.7 48 8.9 83 83 ESE 6 9 30.08 1019 10 16 0.00 0.00
10:53 am 10:53 Sunny 55 12.8 48 8.9 77 77 SE 7 11 30.05 1018 10 16 0.00 0.00
11:53 am 11:53 Sunny 57 13.9 50 10 77 77 SSE 6 9 30.03 1017 10 16 0.00 0.00
12:53 pm 12:53 Mostly Cloudy 60 15.6 52 11.1 75 75 SE 7 11 29.98 1015 10 16 0.00 0.00
1:53 pm 13:53 Cloudy 61 16.1 53 11.7 75 75 S 6 9 29.98 1015 10 16 0.01 0.25
2:53 pm 14:53 Cloudy 61 16.1 53 11.7 75 75 ESE 7 11 29.94 1014 10 16 0.00 0.00
3:53 pm 15:53 Cloudy 61 16.1 53 11.7 75 75 E 7 11 29.91 1013 10 16 0.00 0.00
4:53 pm 16:53 Cloudy 60 15.6 54 12.2 80 80 ESE 6 9 29.89 1012 10 16 0.00 0.00
5:53 pm 17:53 Cloudy 60 15.6 54 12.2 80 80 ESE 5 7 29.88 1012 10 16 0.00 0.00
6:53 pm 18:53 Cloudy with Light Rain 59 15 56 13.3 90 90 E 6 9 29.85 1011 6 10 0.07 1.78
7:03 pm 19:03 Cloudy with Light Rain 59 15 56 13.3 90 90 ESE 7 11 29.85 1011 6 10 0.01 0.25
7:53 pm 19:53 Cloudy with Light Rain 61 16.1 59 15 93 93 ESE 10 17 29.79 1009 6 10 0.12 3.05
8:04 pm 20:04 Cloudy with Light Rain 62 16.7 59 15 90 90 SE 13 20 29.81 1009 9 14 0.01 0.13
8:29 pm 20:29 Cloudy with Rain 62 16.7 60 15.6 93 93 SE 9 15 29.81 1009 5 8 0.08 2.03
8:53 pm 20:53 Cloudy with Light Rain 62 16.7 59 15 90 90 ESE 8 13 29.75 1008 6 10 0.13 3.30
9:53 pm 21:53 Cloudy with Light Rain 62 16.7 60 15.6 93 93 SE 14 22 29.70 1006 6 10 0.05 1.27
10:53 pm 22:53 Cloudy with Light Rain 63 17.2 61 16.1 93 93 SSE 14 22 29.66 1005 7 11 0.01 0.25
11:53 pm 23:53 Cloudy with Light Rain 65 18.3 62 16.7 90 90 SSE 15 24 29.65 1004 10 16 0.01 0.25

Powered by AerisWeather